Change the Weather History Date:

Thursday, June 13, 2013

  Actual Average Record
Temperature  
Mean Temperature 84 °F 80 °F  
Max Temperature 91 °F 89 °F 96 °F (2010)
Min Temperature 76 °F 71 °F 63 °F (1979)
Degree Days  
Heating Degree Days 0    
Month to date heating degree days 0  
Since 1 June heating degree days 0  
Since 1 July heating degree days 1129  
Cooling Degree Days 19    
Month to date cooling degree days 208  
Year to date cooling degree days 589  
Since 1 June cooling degree days 208  
Growing Degree Days 34 (Base 50)    
Moisture  
Dew Point 76 °F    
Average Humidity 78    
Maximum Humidity 91    
Minimum Humidity 64    
Precipitation  
Precipitation 0.00 in 0.18 in 1.70 in (1932)
Month to date precipitation 1.40 1.92  
Year to date precipitation 20.68 21.30  
Sea Level Pressure  
Sea Level Pressure 29.97 in    
Wind  
Wind Speed 11 mph (West)    
Max Wind Speed 21 mph    
Max Gust Speed 24 mph    
Visibility 9 miles    
Events      
T = Trace of Precipitation, MM = Missing Value Source: NWS Daily Summary

Daily Weather History Graph

Daily Weather History Graph

Search for Another Location

Airport or City:

Trip Planner

Search our weather history database for the weather conditions in past years. The results will help you decide how hot, cold, wet, or windy it might be!

Date:

Astronomy

Jun. 13, 2013 Rise Set
Actual Time 6:39 AM EDT 8:41 PM EDT
Civil Twilight 6:11 AM EDT 9:08 PM EDT
Nautical Twilight 5:38 AM EDT 9:41 PM EDT
Astronomical Twilight 5:03 AM EDT 10:17 PM EDT
Moon 10:58 AM EDT (6/13) No Moon Set
Length of Visible Light 14h 56m
Length of Day
14h 02m
Waxing Crescent, 21% of the Moon is Illuminated
Jun 13
Waxing Crescent
Jun 16
First Quarter
Jun 23
Full
Jun 30
Last Quarter
Jul 8
New

Hourly Weather History & Observations

Time (EDT) Temp. Heat Index Dew Point Humidity Pressure Visibility Wind Dir Wind Speed Gust Speed Precip Events Conditions
12:53 AM 80.1 °F 85.4 °F 75.9 °F 87% 30.02 in 9.0 mi West 6.9 mph - N/A   Clear
1:53 AM 79.0 °F - 75.9 °F 90% 30.01 in 8.0 mi West 4.6 mph - N/A   Clear
2:53 AM 79.0 °F - 75.0 °F 88% 29.99 in 9.0 mi West 4.6 mph - N/A   Clear
3:53 AM 78.1 °F - 75.0 °F 90% 29.99 in 9.0 mi WNW 3.5 mph - N/A   Clear
4:53 AM 77.0 °F - 73.9 °F 90% 29.99 in 7.0 mi Calm Calm - N/A   Clear
5:53 AM 77.0 °F - 73.9 °F 90% 29.99 in 8.0 mi West 3.5 mph - N/A   Clear
6:53 AM 78.1 °F - 75.0 °F 90% 30.01 in 7.0 mi West 4.6 mph - N/A   Clear
7:53 AM 80.1 °F 85.4 °F 75.9 °F 87% 30.01 in 10.0 mi West 5.8 mph - N/A   Clear
8:53 AM 84.0 °F 93.7 °F 77.0 °F 79% 30.02 in 10.0 mi WNW 8.1 mph - N/A   Clear
9:53 AM 87.1 °F 96.3 °F 75.0 °F 67% 30.03 in 10.0 mi NW 9.2 mph - N/A   Clear
10:53 AM 89.1 °F 100.2 °F 75.9 °F 65% 30.02 in 10.0 mi WNW 8.1 mph - N/A   Partly Cloudy
11:22 AM 87.8 °F 97.6 °F 75.2 °F 66% 30.02 in 10.0 mi WSW 12.7 mph - N/A   Mostly Cloudy
11:53 AM 86.0 °F 96.9 °F 77.0 °F 74% 30.02 in 10.0 mi SW 13.8 mph - N/A   Overcast
12:00 PM 87.8 °F 99.7 °F 77.0 °F 70% 30.02 in 10.0 mi WSW 13.8 mph - N/A   Mostly Cloudy
12:53 PM 90.0 °F 102.5 °F 77.0 °F 65% 30.01 in 10.0 mi WSW 18.4 mph - N/A   Partly Cloudy
1:53 PM 90.0 °F 102.5 °F 77.0 °F 65% 29.99 in 10.0 mi WSW 16.1 mph - N/A   Clear
2:53 PM 89.1 °F 101.4 °F 77.0 °F 67% 29.96 in 10.0 mi WSW 18.4 mph 24.2 mph N/A   Clear
3:53 PM 89.1 °F 101.4 °F 77.0 °F 67% 29.94 in 10.0 mi WSW 18.4 mph - N/A   Clear
4:53 PM 89.1 °F 100.2 °F 75.9 °F 65% 29.93 in 10.0 mi WSW 17.3 mph - N/A   Clear
5:53 PM 87.1 °F 98.8 °F 77.0 °F 72% 29.91 in 10.0 mi West 18.4 mph - N/A   Clear
6:53 PM 86.0 °F 96.9 °F 77.0 °F 74% 29.90 in 10.0 mi WSW 17.3 mph - N/A   Clear
7:53 PM 84.0 °F 93.7 °F 77.0 °F 79% 29.91 in 10.0 mi West 11.5 mph - N/A   Clear
8:48 PM 82.4 °F 90.9 °F 77.0 °F 84% 29.90 in 10.0 mi West 10.4 mph - N/A   Mostly Cloudy
8:53 PM 82.9 °F 91.8 °F 77.0 °F 82% 29.90 in 10.0 mi West 9.2 mph - N/A   Mostly Cloudy
9:24 PM 82.4 °F 89.5 °F 75.2 °F 79% 29.91 in 10.0 mi West 12.7 mph - N/A   Scattered Clouds
9:53 PM 82.0 °F 89.4 °F 75.9 °F 82% 29.91 in 10.0 mi West 11.5 mph - N/A   Partly Cloudy
10:53 PM 82.0 °F 89.4 °F 75.9 °F 82% 29.92 in 10.0 mi West 9.2 mph - N/A   Partly Cloudy
11:29 PM 82.4 °F 89.5 °F 75.2 °F 79% 29.92 in 9.0 mi West 6.9 mph - N/A   Mostly Cloudy
11:36 PM 82.4 °F 90.9 °F 77.0 °F 84% 29.92 in 9.0 mi West 10.4 mph - N/A   Mostly Cloudy
11:53 PM 82.0 °F 90.2 °F 77.0 °F 85% 29.91 in 9.0 mi West 15.0 mph - N/A   Overcast